Powrót do katalogu

FENGYUN 1C DEB

AktywnyPO
NORAD 31415·DEBRIS·🇨🇳 China

Wystrzelony May 10, 1999 z Taiyuan Satellite Launch Center

Loading…

Następne Przeloty (najbliższe 24 godziny)

TLE

ŚwieżeSource: Space-Track

Epoka: Sep 13, 2026, 04:18 UTC

1 31415U 99025BTB 26256.17948472  .00001949  00000-0  72711-3 0  9996
2 31415  99.6686 243.7066 0062332  13.5582 346.7255 14.32213099667575

Śledź FENGYUN 1C DEB w czasie rzeczywistym z AllMySat

Download on the App Store